Worcester, MA

1:59 PM EDT on May 22, 2017 (GMT -0400)
Worcester Regional

Weather History for KORH - June, 2012

Change the Weather History Date:

Tuesday, June 26, 2012

  Actual Average Record
Temperature  
Mean Temperature 61 °F 68 °F  
Max Temperature 67 °F 77 °F 98 °F (1952)
Min Temperature 54 °F 59 °F 45 °F (1986)
Degree Days  
Heating Degree Days 4 1  
Month to date heating degree days 82 78  
Since 1 June heating degree days 82 78  
Since 1 July heating degree days 5297 6712  
Cooling Degree Days 0 4  
Month to date cooling degree days 59 67  
Year to date cooling degree days 120 89  
Since 1 June cooling degree days 59 67  
Growing Degree Days 10 (Base 50)    
Moisture  
Dew Point 53 °F    
Average Humidity 76    
Maximum Humidity 93    
Minimum Humidity 58    
Precipitation  
Precipitation 0.02 in 0.13 in 1.25 in (1958)
Month to date precipitation 5.51 3.70  
Year to date precipitation 18.74 22.93  
Snow  
Snow 0.00 in 0.00 in T in (1945)
Month to date snowfall 0.0 0.0  
Since 1 June snowfall 0.0 0.0  
Since 1 July snowfall 39.7 64.1  
Snow Depth 0.00 in    
Sea Level Pressure  
Sea Level Pressure 29.63 in    
Wind  
Wind Speed 13 mph (NW)    
Max Wind Speed 21 mph    
Max Gust Speed 28 mph    
Visibility 10 miles    
Events Rain    
T = Trace of Precipitation, MM = Missing Value Source: NWS Daily Summary

Daily Weather History Graph

Daily Weather History Graph

Search for Another Location

Airport or City:

Trip Planner

Search our weather history database for the weather conditions in past years. The results will help you decide how hot, cold, wet, or windy it might be!

Date:

Astronomy

Jun. 26, 2012 Rise Set
Actual Time 5:12 AM EDT 8:28 PM EDT
Civil Twilight 4:38 AM EDT 9:02 PM EDT
Nautical Twilight 3:53 AM EDT 9:47 PM EDT
Astronomical Twilight 2:58 AM EDT 10:41 PM EDT
Moon 12:34 PM EDT (6/26) No Moon Set
Length of Visible Light 16h 24m
Length of Day
15h 15m
Waxing Crescent, 45% of the Moon is Illuminated
Jun 26
Waxing Crescent
Jun 26
First Quarter
Jul 3
Full
Jul 10
Last Quarter
Jul 19
New

Hourly Weather History & Observations

Time (EDT) Temp. Dew Point Humidity Pressure Visibility Wind Dir Wind Speed Gust Speed Precip Events Conditions
12:54 AM 59.0 °F 55.0 °F 87% 29.67 in 10.0 mi NW 8.1 mph - N/A   Mostly Cloudy
1:54 AM 57.0 °F 55.0 °F 93% 29.63 in 10.0 mi WNW 12.7 mph - N/A   Mostly Cloudy
2:54 AM 55.9 °F 54.0 °F 93% 29.64 in 10.0 mi WNW 13.8 mph - N/A   Scattered Clouds
3:01 AM 55.4 °F 53.6 °F 94% 29.64 in 10.0 mi NW 10.4 mph 19.6 mph N/A   Scattered Clouds
3:19 AM 55.4 °F 53.6 °F 94% 29.64 in 10.0 mi NW 11.5 mph - N/A   Mostly Cloudy
3:43 AM 55.4 °F 53.6 °F 94% 29.63 in 10.0 mi NW 11.5 mph - N/A   Mostly Cloudy
3:54 AM 55.9 °F 53.1 °F 90% 29.62 in 10.0 mi NW 11.5 mph - N/A   Mostly Cloudy
4:54 AM 55.0 °F 52.0 °F 89% 29.61 in 10.0 mi WNW 11.5 mph - N/A   Partly Cloudy
5:04 AM 55.4 °F 51.8 °F 88% 29.61 in 10.0 mi NW 11.5 mph - N/A   Partly Cloudy
5:54 AM 54.0 °F 51.1 °F 90% 29.62 in 10.0 mi NW 13.8 mph - N/A   Clear
6:52 AM 55.4 °F 51.8 °F 88% 29.62 in 10.0 mi WNW 13.8 mph 20.7 mph N/A   Mostly Cloudy
6:54 AM 55.0 °F 51.1 °F 86% 29.62 in 10.0 mi NW 13.8 mph 20.7 mph N/A   Mostly Cloudy
7:54 AM 57.0 °F 51.1 °F 81% 29.62 in 10.0 mi WNW 15.0 mph - N/A   Mostly Cloudy
8:13 AM 57.2 °F 51.8 °F 82% 29.62 in 10.0 mi WNW 12.7 mph 21.9 mph N/A   Scattered Clouds
8:54 AM 60.1 °F 51.1 °F 72% 29.62 in 10.0 mi NW 11.5 mph - N/A   Clear
9:54 AM 62.1 °F 52.0 °F 70% 29.62 in 10.0 mi WNW 12.7 mph - N/A   Mostly Cloudy
10:54 AM 64.9 °F 52.0 °F 63% 29.61 in 10.0 mi NNW 15.0 mph 21.9 mph N/A   Mostly Cloudy
11:43 AM 66.2 °F 51.8 °F 60% 29.61 in 10.0 mi NW 15.0 mph 21.9 mph N/A   Mostly Cloudy
11:54 AM 64.9 °F 52.0 °F 63% 29.61 in 10.0 mi NW 18.4 mph 26.5 mph N/A   Mostly Cloudy
12:54 PM 66.9 °F 53.1 °F 61% 29.61 in 10.0 mi NW 12.7 mph 23.0 mph N/A   Mostly Cloudy
1:54 PM 66.0 °F 52.0 °F 60% 29.61 in 10.0 mi NW 11.5 mph 21.9 mph N/A   Overcast
2:17 PM 62.6 °F 55.4 °F 77% 29.61 in 7.0 mi NNW 12.7 mph 23.0 mph 0.00 in Rain Light Rain
2:54 PM 63.0 °F 53.1 °F 70% 29.61 in 10.0 mi NW 15.0 mph 23.0 mph 0.00 in   Overcast
3:54 PM 63.0 °F 53.1 °F 70% 29.62 in 10.0 mi NW 17.3 mph 27.6 mph N/A   Overcast
4:01 PM 62.6 °F 51.8 °F 68% 29.62 in 10.0 mi NW 19.6 mph 27.6 mph N/A   Overcast
4:12 PM 62.6 °F 53.6 °F 72% 29.62 in 10.0 mi NW 18.4 mph 24.2 mph N/A   Overcast
4:20 PM 62.6 °F 53.6 °F 72% 29.62 in 10.0 mi WNW 19.6 mph 26.5 mph N/A   Overcast
4:54 PM 63.0 °F 54.0 °F 72% 29.62 in 10.0 mi WNW 12.7 mph - 0.00 in   Overcast
5:54 PM 63.0 °F 55.0 °F 75% 29.63 in 10.0 mi WNW 11.5 mph - 0.00 in   Overcast
6:54 PM 60.1 °F 57.0 °F 90% 29.66 in 8.0 mi WNW 9.2 mph - 0.02 in Rain Light Rain
7:54 PM 60.1 °F 55.0 °F 83% 29.66 in 10.0 mi West 12.7 mph 20.7 mph 0.00 in   Mostly Cloudy
8:54 PM 57.9 °F 53.1 °F 84% 29.65 in 10.0 mi West 10.4 mph - N/A   Clear
9:54 PM 57.9 °F 51.1 °F 78% 29.66 in 10.0 mi West 13.8 mph - N/A   Clear
10:54 PM 57.0 °F 51.1 °F 81% 29.66 in 10.0 mi West 12.7 mph - N/A   Clear
11:54 PM 57.0 °F 50.0 °F 77% 29.65 in 10.0 mi West 12.7 mph - N/A   Clear